GOPLM EGFA-EGHQ

Flight info

Callsign GOPLM
Flight time N/A
Altitude 3000
Route VFR
Aircraft DA62/L-SFG/C

Departure

Time N/A
Airport Aberporth Airport (EGFA)

Arrival

Time 2026-04-28 19:44
Airport Cornwall Airport Newquay (EGHQ)
Time Latitude Longitude Altitude Speed Heading
2026-04-28 18:55 51.61556 -4.05817 874 ft 82 kts 44°
2026-04-28 18:55 51.61868 -4.05065 997 ft 88 kts 83°
2026-04-28 18:55 51.61552 -4.04177 1209 ft 97 kts 127°
2026-04-28 18:56 51.61115 -4.03471 1458 ft 87 kts 106°
2026-04-28 18:56 51.61019 -4.02477 1559 ft 91 kts 100°
2026-04-28 18:56 51.60593 -4.01724 1750 ft 108 kts 158°
2026-04-28 18:56 51.59803 -4.01868 1924 ft 117 kts 179°
2026-04-28 18:57 51.58958 -4.02076 2001 ft 131 kts 180°
2026-04-28 18:57 51.58021 -4.02287 2009 ft 141 kts 180°
2026-04-28 18:57 51.57031 -4.02501 2009 ft 145 kts 179°
2026-04-28 18:57 51.56030 -4.02717 2007 ft 145 kts 180°
2026-04-28 18:58 51.55036 -4.02927 1999 ft 146 kts 180°
2026-04-28 18:58 51.54033 -4.03128 1999 ft 144 kts 176°
2026-04-28 18:58 51.53038 -4.03146 1998 ft 143 kts 171°
2026-04-28 18:58 51.52033 -4.03152 1998 ft 145 kts 172°
2026-04-28 18:59 51.51025 -4.03158 2000 ft 145 kts 172°
2026-04-28 18:59 51.50012 -4.03161 1999 ft 146 kts 171°
2026-04-28 18:59 51.48993 -4.03189 1998 ft 146 kts 172°
2026-04-28 18:59 51.47975 -4.03224 2001 ft 147 kts 172°
2026-04-28 19:00 51.46943 -4.03255 2001 ft 148 kts 172°
2026-04-28 19:00 51.45912 -4.03274 2005 ft 149 kts 172°
2026-04-28 19:00 51.44877 -4.03293 2000 ft 148 kts 172°
2026-04-28 19:00 51.43848 -4.03317 1998 ft 147 kts 172°
2026-04-28 19:01 51.42828 -4.03350 1997 ft 146 kts 172°
2026-04-28 19:01 51.41812 -4.03388 1997 ft 146 kts 172°
2026-04-28 19:01 51.40799 -4.03418 1997 ft 145 kts 172°
2026-04-28 19:01 51.39789 -4.03450 1996 ft 146 kts 171°
2026-04-28 19:02 51.38768 -4.03489 2000 ft 147 kts 172°
2026-04-28 19:02 51.37758 -4.03520 1998 ft 147 kts 172°
2026-04-28 19:02 51.36735 -4.03554 1996 ft 147 kts 171°
2026-04-28 19:02 51.35715 -4.03603 1994 ft 146 kts 172°
2026-04-28 19:03 51.34701 -4.03640 1992 ft 145 kts 172°
2026-04-28 19:03 51.33685 -4.03682 1995 ft 147 kts 172°
2026-04-28 19:03 51.32657 -4.03734 1998 ft 148 kts 172°
2026-04-28 19:03 51.31627 -4.03764 1997 ft 149 kts 171°
2026-04-28 19:04 51.30585 -4.03796 1992 ft 150 kts 171°
2026-04-28 19:04 51.29548 -4.03837 1989 ft 148 kts 172°
2026-04-28 19:04 51.28529 -4.03874 1987 ft 146 kts 171°
2026-04-28 19:04 51.27519 -4.03920 1987 ft 145 kts 172°
2026-04-28 19:05 51.26521 -4.03976 1993 ft 142 kts 172°
2026-04-28 19:05 51.25529 -4.04005 1985 ft 143 kts 172°
2026-04-28 19:05 51.24535 -4.04135 1969 ft 149 kts 193°
2026-04-28 19:05 51.23700 -4.05162 1969 ft 155 kts 233°
2026-04-28 19:06 51.23323 -4.06751 1981 ft 154 kts 257°
2026-04-28 19:06 51.23115 -4.07842 1978 ft 156 kts 254°
2026-04-28 19:06 51.22562 -4.10006 1982 ft 158 kts 249°
2026-04-28 19:06 51.22154 -4.11623 1972 ft 155 kts 249°
2026-04-28 19:07 51.21752 -4.13212 1972 ft 155 kts 250°
2026-04-28 19:07 51.21351 -4.14784 1979 ft 155 kts 250°
2026-04-28 19:07 51.20933 -4.16392 1982 ft 158 kts 250°
2026-04-28 19:07 51.20516 -4.18017 1983 ft 159 kts 249°
2026-04-28 19:08 51.19962 -4.19512 1971 ft 157 kts 217°
2026-04-28 19:08 51.18982 -4.20046 1979 ft 147 kts 180°
2026-04-28 19:08 51.17959 -4.20235 1970 ft 148 kts 180°
2026-04-28 19:08 51.16937 -4.20428 1977 ft 146 kts 179°
2026-04-28 19:09 51.15932 -4.20666 1973 ft 144 kts 180°
2026-04-28 19:09 51.14954 -4.20880 1971 ft 140 kts 180°
2026-04-28 19:09 51.13985 -4.21071 1993 ft 143 kts 179°
2026-04-28 19:09 51.12975 -4.21279 1990 ft 149 kts 179°
2026-04-28 19:10 51.11925 -4.21505 1981 ft 154 kts 180°
2026-04-28 19:10 51.10866 -4.21728 1984 ft 154 kts 179°
2026-04-28 19:10 51.09792 -4.21956 1985 ft 157 kts 179°
2026-04-28 19:10 51.08719 -4.22296 1975 ft 161 kts 196°
2026-04-28 19:11 51.07689 -4.23036 1975 ft 163 kts 199°
2026-04-28 19:11 51.06653 -4.23793 1972 ft 165 kts 200°
2026-04-28 19:11 51.05608 -4.24552 1977 ft 165 kts 199°
2026-04-28 19:11 51.04569 -4.25333 1969 ft 165 kts 200°
2026-04-28 19:12 51.03537 -4.26134 1962 ft 167 kts 207°
2026-04-28 19:12 51.02867 -4.27590 1970 ft 168 kts 259°
2026-04-28 19:12 51.02729 -4.29411 1973 ft 166 kts 269°
2026-04-28 19:12 51.02640 -4.31250 1973 ft 168 kts 269°
2026-04-28 19:13 51.02552 -4.33103 1974 ft 169 kts 270°
2026-04-28 19:13 51.02462 -4.34968 1976 ft 169 kts 270°
2026-04-28 19:13 51.02363 -4.36829 1976 ft 168 kts 270°
2026-04-28 19:13 51.02262 -4.38673 1975 ft 167 kts 269°
2026-04-28 19:14 51.02162 -4.40481 2023 ft 164 kts 270°
2026-04-28 19:14 51.02061 -4.42287 2025 ft 166 kts 270°
2026-04-28 19:14 51.01953 -4.44121 2026 ft 168 kts 269°
2026-04-28 19:14 51.01847 -4.45976 2033 ft 169 kts 269°
2026-04-28 19:15 51.01735 -4.47865 2024 ft 173 kts 268°
2026-04-28 19:15 51.01193 -4.49517 2024 ft 169 kts 216°
2026-04-28 19:15 51.00141 -4.50150 2024 ft 160 kts 180°
2026-04-28 19:15 50.99414 -4.50318 2025 ft 160 kts 179°
2026-04-28 19:16 50.97924 -4.50662 2023 ft 163 kts 180°
2026-04-28 19:16 50.96829 -4.50895 2022 ft 160 kts 179°
2026-04-28 19:16 50.95727 -4.51138 2019 ft 159 kts 180°
2026-04-28 19:16 50.94637 -4.51364 2019 ft 157 kts 179°
2026-04-28 19:17 50.93553 -4.51605 2025 ft 158 kts 179°
2026-04-28 19:17 50.92460 -4.51868 2026 ft 159 kts 180°
2026-04-28 19:17 50.91358 -4.52106 2029 ft 161 kts 179°
2026-04-28 19:17 50.90237 -4.52342 2025 ft 162 kts 179°
2026-04-28 19:18 50.89113 -4.52564 2028 ft 163 kts 179°
2026-04-28 19:18 50.87988 -4.52785 2024 ft 163 kts 179°
2026-04-28 19:18 50.86865 -4.53032 2024 ft 164 kts 179°
2026-04-28 19:18 50.85730 -4.53293 2020 ft 165 kts 179°
2026-04-28 19:19 50.84599 -4.53557 2011 ft 163 kts 180°
2026-04-28 19:19 50.83474 -4.53796 2012 ft 162 kts 180°
2026-04-28 19:19 50.82374 -4.54132 2009 ft 167 kts 196°
2026-04-28 19:19 50.81313 -4.54918 2020 ft 170 kts 200°
2026-04-28 19:20 50.80257 -4.55790 2011 ft 173 kts 205°
2026-04-28 19:20 50.79227 -4.56758 2011 ft 171 kts 205°
2026-04-28 19:20 50.78203 -4.57718 2018 ft 172 kts 205°
2026-04-28 19:20 50.77172 -4.58671 2016 ft 172 kts 205°
2026-04-28 19:21 50.76137 -4.59635 2019 ft 174 kts 205°
2026-04-28 19:21 50.75097 -4.60608 2007 ft 172 kts 206°
2026-04-28 19:21 50.74073 -4.61555 2004 ft 170 kts 206°
2026-04-28 19:21 50.73068 -4.62542 2007 ft 172 kts 214°
2026-04-28 19:22 50.72159 -4.63794 2010 ft 174 kts 219°
2026-04-28 19:22 50.71560 -4.64652 2011 ft 175 kts 219°
2026-04-28 19:22 50.70353 -4.66374 2002 ft 173 kts 220°
2026-04-28 19:22 50.69462 -4.67616 2009 ft 170 kts 219°
2026-04-28 19:23 50.68580 -4.68871 1997 ft 170 kts 219°
2026-04-28 19:23 50.67719 -4.70134 2006 ft 170 kts 220°
2026-04-28 19:23 50.66839 -4.71373 2003 ft 169 kts 219°
2026-04-28 19:23 50.65955 -4.72600 2009 ft 171 kts 219°
2026-04-28 19:24 50.65065 -4.73845 2001 ft 172 kts 218°
2026-04-28 19:24 50.64186 -4.75126 1999 ft 171 kts 219°
2026-04-28 19:24 50.63320 -4.76399 1993 ft 169 kts 219°
2026-04-28 19:24 50.62474 -4.77641 2008 ft 161 kts 219°
2026-04-28 19:25 50.61687 -4.78885 2003 ft 166 kts 236°
2026-04-28 19:25 50.61298 -4.80605 2007 ft 169 kts 256°
2026-04-28 19:25 50.60976 -4.82404 2009 ft 172 kts 256°
2026-04-28 19:25 50.60650 -4.84223 2010 ft 174 kts 257°
2026-04-28 19:26 50.60313 -4.86054 2005 ft 174 kts 256°
2026-04-28 19:26 50.59897 -4.87823 1994 ft 173 kts 234°
2026-04-28 19:26 50.58940 -4.88817 1989 ft 162 kts 185°
2026-04-28 19:26 50.57849 -4.89287 1999 ft 167 kts 194°
2026-04-28 19:27 50.56760 -4.89962 1993 ft 168 kts 195°
2026-04-28 19:27 50.55673 -4.90630 1994 ft 167 kts 194°
2026-04-28 19:27 50.54595 -4.91290 1993 ft 166 kts 195°
2026-04-28 19:27 50.53522 -4.91926 2000 ft 164 kts 195°
2026-04-28 19:28 50.52688 -4.93126 1981 ft 167 kts 257°
2026-04-28 19:28 50.52861 -4.94759 2042 ft 150 kts 316°
2026-04-28 19:28 50.53682 -4.95499 2007 ft 132 kts
2026-04-28 19:28 50.54142 -4.94700 2243 ft 103 kts 92°
2026-04-28 19:29 50.53598 -4.93939 2290 ft 143 kts 165°
2026-04-28 19:29 50.52914 -4.94321 2193 ft 169 kts 224°
2026-04-28 19:29 50.53134 -4.96261 2256 ft 131 kts 347°
2026-04-28 19:29 50.53775 -4.95928 2365 ft 109 kts 70°
2026-04-28 19:30 50.53417 -4.94879 2397 ft 139 kts 150°
2026-04-28 19:30 50.52441 -4.95427 2319 ft 171 kts 231°
2026-04-28 19:30 50.52359 -4.97047 2631 ft 138 kts 305°
2026-04-28 19:30 50.53034 -4.97827 2711 ft 119 kts 11°
2026-04-28 19:31 50.53530 -4.97012 2712 ft 113 kts 89°
2026-04-28 19:31 50.53324 -4.95817 2866 ft 108 kts 95°
2026-04-28 19:31 50.53184 -4.94677 2812 ft 128 kts 112°
2026-04-28 19:31 50.52247 -4.94282 2764 ft 165 kts 192°
2026-04-28 19:32 50.51356 -4.95414 2596 ft 185 kts 243°
2026-04-28 19:32 50.51061 -4.97250 2682 ft 159 kts 219°
2026-04-28 19:32 50.50239 -4.98341 2031 ft 159 kts 220°
2026-04-28 19:32 50.49409 -4.99319 1482 ft 139 kts 206°
2026-04-28 19:33 50.48578 -5.00035 1076 ft 130 kts 202°
2026-04-28 19:33 50.47794 -5.00493 848 ft 111 kts 177°
2026-04-28 19:33 50.47118 -5.00212 739 ft 94 kts 134°
2026-04-28 19:33 50.46741 -4.99462 716 ft 86 kts 109°
2026-04-28 19:34 50.46519 -4.98590 794 ft 86 kts 101°
2026-04-28 19:34 50.46297 -4.97723 865 ft 83 kts 104°
2026-04-28 19:34 50.46040 -4.96875 772 ft 89 kts 107°
2026-04-28 19:34 50.45775 -4.96014 828 ft 86 kts 105°
2026-04-28 19:35 50.45534 -4.95197 960 ft 81 kts 107°
2026-04-28 19:35 50.45305 -4.94456 1031 ft 74 kts 94°
2026-04-28 19:35 50.45615 -4.93995 1033 ft 82 kts 358°
2026-04-28 19:35 50.45950 -4.94727 1044 ft 97 kts 279°
2026-04-28 19:36 50.45684 -4.95680 1087 ft 97 kts 208°
2026-04-28 19:36 50.45135 -4.95641 1200 ft 73 kts 128°
2026-04-28 19:36 50.44937 -4.95259 1277 ft 62 kts 97°
2026-04-28 19:36 50.45108 -4.94752 1328 ft 62 kts 31°
2026-04-28 19:37 50.45572 -4.95065 1384 ft 93 kts 325°
2026-04-28 19:37 50.45738 -4.95756 1433 ft 106 kts 284°
2026-04-28 19:37 50.45171 -4.96736 1491 ft 92 kts 153°
2026-04-28 19:37 50.44948 -4.96060 1516 ft 72 kts 71°
2026-04-28 19:38 50.45350 -4.95833 1612 ft 91 kts 343°
2026-04-28 19:38 50.45484 -4.96932 1505 ft 121 kts 244°
2026-04-28 19:38 50.44825 -4.97367 1472 ft 102 kts 142°
2026-04-28 19:38 50.44417 -4.96619 1453 ft 84 kts 105°
2026-04-28 19:39 50.44299 -4.95819 1444 ft 74 kts 85°
2026-04-28 19:39 50.43921 -4.95159 1398 ft 103 kts 157°
2026-04-28 19:39 50.43256 -4.95726 1391 ft 124 kts 244°
2026-04-28 19:39 50.43081 -4.97018 920 ft 120 kts 292°
2026-04-28 19:40 50.43500 -4.98117 786 ft 109 kts 306°
2026-04-28 19:40 50.43832 -4.99177 862 ft 110 kts 304°
2026-04-28 19:40 50.44181 -5.00156 1030 ft 99 kts 324°
2026-04-28 19:40 50.44751 -5.00433 1214 ft 76 kts 19°
2026-04-28 19:41 50.45197 -5.00160 1500 ft 67 kts 33°
2026-04-28 19:41 50.45475 -4.99601 1674 ft 72 kts 74°
2026-04-28 19:41 50.45192 -4.98724 1524 ft 114 kts 119°
2026-04-28 19:41 50.44653 -4.97782 1598 ft 115 kts 118°
2026-04-28 19:42 50.44145 -4.96871 1852 ft 108 kts 122°
2026-04-28 19:42 50.43622 -4.96013 1956 ft 101 kts 110°
2026-04-28 19:42 50.43440 -4.95046 1971 ft 100 kts 109°
2026-04-28 19:42 50.42667 -4.94915 1640 ft 143 kts 207°
2026-04-28 19:43 50.42484 -4.96184 1253 ft 116 kts 314°
2026-04-28 19:43 50.43036 -4.97042 771 ft 108 kts 317°
2026-04-28 19:43 50.43456 -4.97952 447 ft 98 kts 309°
2026-04-28 19:43 50.43796 -4.98790 331 ft 78 kts 308°
2026-04-28 19:44 50.43930 -4.99159 333 ft 16 kts 300°
2026-04-28 19:44 50.43994 -4.99318 332 ft 19 kts 305°
2026-04-28 19:44 50.44021 -4.99500 329 ft 15 kts 211°
2026-04-28 19:44 50.43914 -4.99505 331 ft 15 kts 185°
2026-04-28 19:45 50.43870 -4.99510 333 ft 0 kts 182°
2026-04-28 19:45 50.43846 -4.99515 334 ft 14 kts 194°
2026-04-28 19:45 50.43744 -4.99500 335 ft 16 kts 148°
2026-04-28 19:45 50.43686 -4.99430 336 ft 5 kts 105°
2026-04-28 19:46 50.43693 -4.99398 336 ft 0 kts 346°
2026-04-28 19:46 50.43695 -4.99399 336 ft 0 kts 321°